IRIDIUM 58

Last updated on Wed Nov 29 2017 00:19:02 GMT+0000 (Coordinated Universal Time)

1 25274U 98019C 17332.16538313 .00000176 00000-0 50934-4 0 9992 2 25274 86.4249 218.9570 0001737 91.2987 268.8411 14.38601659 29601
UTC large
Height (km)
Speed (km/s)
/
Latitude / Longitude
Inclination (degrees)
Orbital Period (minutes)
Azimuth
Elevation
Range (km)
Doppler Factor

Next 0 passes for location: London (51.5072 / 0.1276)

Sorry there are no passes over London.
IRIDIUM 58